Date String (YYYY-MM-DD hh:mm:ss) UTC,Instrument flags,absolute air pressure of the measurement (hPa),sample flow rate (lpm),inlet stack bypass flow (lpm),air temperature of the measurement (°C),ambient temperature measured by the external sensor (°C),aerosol sample conditioner tube jacket temperature (°C),OPC LED temperature (°C),internal box temperature (°C),relative humidity of the measurement (%),span deviation,mass concentration of particles derived from Lorenz-Mie calculation of OPC scattering (μg/m³),mass concentration of particles derived from Lorenz-Mie calculation of OPC scattering (μg/m³),mass concentration of particles derived from Lorenz-Mie calculation of OPC scattering (μg/m³)
DateTimeUTC,F1_M11,P_M11,Q1_M11,Q2_M11,T1_M11,T2_M11,T3_M11,T4_M11,T5_M11,U1_M11,ZSPAN_M11,X0_M11,X2_M11,X1_M11
2023-07-04 16:00:00,SystemResetWarning,0832.7,4.99,000.00,029.3,028.0,000.0,037.8,031.0,27.8,0000.0,0011.15,0004.59,0003.99
2023-07-04 16:01:00,SystemResetWarning,0832.7,5.00,000.00,029.4,028.2,000.0,037.8,031.1,28.1,0000.0,0010.50,0004.57,0003.99
2023-07-04 16:02:00,SystemResetWarning,0832.8,4.99,000.00,029.4,027.5,000.0,037.7,031.1,27.7,0000.0,0009.72,0004.54,0003.99
2023-07-04 16:03:00,SystemResetWarning,0832.8,5.00,000.00,029.4,025.9,000.0,037.6,030.8,27.7,0000.0,0009.58,0004.53,0003.99
2023-07-04 16:04:00,SystemResetWarning,0832.8,5.00,000.00,029.3,025.4,000.0,037.6,030.7,27.9,0000.0,0008.49,0004.56,0003.99
2023-07-04 16:05:00,SystemResetWarning,0833.1,5.01,000.00,029.2,025.7,000.0,037.6,030.5,29.3,0000.0,0008.18,0004.56,0003.99
2023-07-04 16:06:00,SystemResetWarning,0832.9,4.99,000.00,029.2,026.1,000.0,037.6,030.5,29.5,0000.0,0007.99,0004.50,0004.00
2023-07-04 16:07:00,SystemResetWarning,0832.9,4.99,000.00,029.2,026.5,000.0,037.6,030.6,28.6,0000.0,0007.81,0004.47,0004.00
2023-07-04 16:08:00,SystemResetWarning,0833.1,5.01,000.00,029.2,026.8,000.0,037.7,030.7,28.3,0000.0,0007.95,0004.51,0004.00
2023-07-04 16:09:00,SystemResetWarning,0833.3,5.01,000.00,029.2,027.2,000.0,037.7,030.8,28.4,0000.0,0007.76,0004.49,0004.00
2023-07-04 16:10:00,SystemResetWarning,0833.2,5.00,000.00,029.2,027.4,000.0,037.7,030.8,28.2,-000.1,0008.63,0004.45,0003.99
2023-07-04 16:11:00,SystemResetWarning,0832.9,4.98,000.00,029.2,027.7,000.0,037.7,030.9,27.7,-000.0,0009.64,0004.44,0003.99
2023-07-04 16:12:00,SystemResetWarning,0833.3,5.00,000.00,029.3,027.9,000.0,037.7,031.0,27.9,-000.1,0010.99,0004.45,0003.98
2023-07-04 16:13:00,SystemResetWarning,0833.1,5.01,000.00,029.3,028.0,000.0,037.8,031.0,28.0,-000.1,0013.08,0004.52,0003.97
2023-07-04 16:14:00,SystemResetWarning,0833.1,5.00,000.00,029.4,027.7,000.0,037.7,031.0,27.7,-000.1,0013.66,0004.56,0003.97
2023-07-04 16:15:00,SystemResetWarning,0833.5,4.99,000.00,029.3,026.0,000.0,037.6,030.8,27.9,0000.0,0013.75,0004.54,0003.98
2023-07-04 16:16:00,SystemResetWarning,0833.0,5.01,000.00,029.2,025.0,000.0,037.5,030.6,28.6,0000.0,0014.43,0004.58,0003.99
2023-07-04 16:17:00,SystemResetWarning,0833.0,5.01,000.00,029.2,025.2,000.0,037.5,030.5,29.1,0000.0,0014.67,0004.59,0004.00
2023-07-04 16:18:00,SystemResetWarning,0833.0,4.98,000.00,029.1,025.6,000.0,037.5,030.4,29.0,0000.0,0015.34,0004.58,0004.01
2023-07-04 16:19:00,SystemResetWarning,0832.8,5.00,000.00,029.1,026.0,000.0,037.6,030.5,29.2,0000.0,0015.28,0004.55,0004.02
2023-07-04 16:20:00,SystemResetWarning,0832.6,5.00,000.00,029.1,026.5,000.0,037.6,030.6,28.9,0000.0,0015.28,0004.58,0004.03
2023-07-04 16:21:00,SystemResetWarning,0832.6,5.01,000.00,029.1,026.8,000.0,037.6,030.6,29.7,0000.0,0014.23,0004.59,0004.04
2023-07-04 16:22:00,SystemResetWarning,0832.5,5.01,000.00,029.1,027.1,000.0,037.6,030.7,29.2,0000.0,0013.31,0004.63,0004.05
2023-07-04 16:23:00,SystemResetWarning,0832.5,4.99,000.00,029.1,027.4,000.0,037.6,030.8,28.7,0000.0,0012.25,0004.64,0004.06
2023-07-04 16:24:00,SystemResetWarning,0832.5,5.00,000.00,029.2,027.6,000.0,037.6,030.8,29.5,0000.0,0010.35,0004.63,0004.07
2023-07-04 16:25:00,SystemResetWarning,0832.5,5.00,000.00,029.2,027.8,000.0,037.7,030.9,28.9,0000.0,0010.38,0004.61,0004.08
2023-07-04 16:26:00,SystemResetWarning,0832.6,5.01,000.00,029.3,028.0,000.0,037.7,031.0,28.4,0000.0,0010.98,0004.61,0004.09
2023-07-04 16:27:00,SystemResetWarning,0832.6,5.01,000.00,029.3,028.0,000.0,037.7,031.0,28.6,0000.0,0010.51,0004.60,0004.09
2023-07-04 16:28:00,SystemResetWarning,0832.7,4.98,000.00,029.3,026.6,000.0,037.6,030.8,28.5,0000.0,0010.77,0004.58,0004.08
2023-07-04 16:29:00,SystemResetWarning,0832.7,5.00,000.00,029.2,025.3,000.0,037.5,030.6,28.8,0000.0,0010.81,0004.62,0004.08
2023-07-04 16:30:00,SystemResetWarning,0832.9,5.01,000.00,029.2,025.2,000.0,037.4,030.6,29.1,0000.0,0010.93,0004.66,0004.06
2023-07-04 16:31:00,SystemResetWarning,0833.1,5.01,000.00,029.1,025.6,000.0,037.5,030.4,29.8,0000.0,0011.78,0004.63,0004.05
2023-07-04 16:32:00,SystemResetWarning,0833.1,5.00,000.00,029.1,026.0,000.0,037.5,030.5,29.3,0000.0,0012.23,0004.63,0004.04
2023-07-04 16:33:00,SystemResetWarning,0833.1,5.01,000.00,029.0,026.4,000.0,037.5,030.6,28.6,0000.0,0012.34,0004.64,0004.04
2023-07-04 16:34:00,SystemResetWarning,0833.1,5.00,000.00,029.1,026.8,000.0,037.6,030.6,28.9,0000.0,0012.54,0004.65,0004.05
2023-07-04 16:35:00,SystemResetWarning,0833.1,5.00,000.00,029.1,027.1,000.0,037.6,030.7,29.2,0000.0,0012.64,0004.68,0004.04
2023-07-04 16:36:00,SystemResetWarning,0833.2,5.00,000.00,029.1,027.4,000.0,037.6,030.8,30.0,0000.0,0012.14,0004.71,0004.05
2023-07-04 16:37:00,SystemResetWarning,0833.2,5.00,000.00,029.2,027.6,000.0,037.6,030.8,30.4,0000.0,0011.67,0004.71,0004.06
2023-07-04 16:38:00,SystemResetWarning,0833.2,5.00,000.00,029.2,027.8,000.0,037.6,030.9,30.8,0000.0,0011.77,0004.72,0004.06
2023-07-04 16:39:00,SystemResetWarning,0833.3,5.00,000.00,029.2,028.0,000.0,037.7,031.0,30.0,0000.0,0011.83,0004.76,0004.06
2023-07-04 16:40:00,SystemResetWarning,0833.3,4.99,000.00,029.3,027.8,000.0,037.6,031.0,29.3,0000.0,0011.45,0004.77,0004.07
2023-07-04 16:41:00,SystemResetWarning,0833.3,4.99,000.00,029.3,026.2,000.0,037.5,030.8,29.2,0000.0,0012.11,0004.77,0004.09
2023-07-04 16:42:00,SystemResetWarning,0833.3,5.00,000.00,029.2,025.1,000.0,037.4,030.6,30.4,0000.0,0011.44,0004.80,0004.12
2023-07-04 16:43:00,SystemResetWarning,0833.2,5.01,000.00,029.1,025.2,000.0,037.4,030.4,29.3,0000.0,0011.23,0004.83,0004.14
2023-07-04 16:44:00,SystemResetWarning,0833.2,5.01,000.00,029.0,025.6,000.0,037.4,030.4,29.4,0000.0,0011.74,0004.82,0004.16
2023-07-04 16:45:00,SystemResetWarning,0833.2,5.00,000.00,029.0,026.0,000.0,037.5,030.4,29.7,0000.0,0011.47,0004.82,0004.17
2023-07-04 16:46:00,SystemResetWarning,0833.2,4.99,000.00,029.0,026.4,000.0,037.5,030.5,30.8,0000.0,0011.28,0004.77,0004.19
2023-07-04 16:47:00,SystemResetWarning,0833.1,5.00,000.00,029.0,026.8,000.0,037.5,030.6,31.9,0000.0,0011.09,0004.78,0004.20
2023-07-04 16:48:00,SystemResetWarning,0833.1,5.01,000.00,029.1,027.1,000.0,037.5,030.7,30.9,0000.0,0011.74,0004.86,0004.21
2023-07-04 16:49:00,SystemResetWarning,0833.0,5.01,000.00,029.1,027.4,000.0,037.6,030.7,31.0,0000.0,0012.30,0004.91,0004.23
2023-07-04 16:50:00,SystemResetWarning,0833.1,5.00,000.00,029.1,027.6,000.0,037.6,030.8,29.5,0000.0,0012.97,0004.91,0004.24
2023-07-04 16:51:00,SystemResetWarning,0833.0,5.00,000.00,029.2,027.8,000.0,037.6,030.9,31.1,0000.0,0013.03,0004.91,0004.26
2023-07-04 16:52:00,SystemResetWarning,0833.0,5.00,000.00,029.2,028.0,000.0,037.6,030.9,30.2,0000.0,0012.89,0004.91,0004.26
2023-07-04 16:53:00,SystemResetWarning,0833.1,5.00,000.00,029.2,028.1,000.0,037.6,031.0,28.8,0000.0,0013.15,0004.94,0004.27
2023-07-04 16:54:00,SystemResetWarning,0833.0,5.00,000.00,029.3,027.7,000.0,037.6,031.0,30.5,0000.0,0012.95,0004.94,0004.27
2023-07-04 16:55:00,SystemResetWarning,0833.0,4.99,000.00,029.3,026.0,000.0,037.5,030.8,28.8,-000.3,0012.37,0004.94,0004.26
2023-07-04 16:56:00,SystemResetWarning,0833.2,5.00,000.00,029.2,025.1,000.0,037.4,030.6,29.2,-002.7,0012.84,0004.94,0004.26
2023-07-04 16:57:00,SystemResetWarning,0832.9,5.00,000.00,029.1,025.3,000.0,037.4,030.4,29.4,-002.5,0012.90,0004.98,0004.26
2023-07-04 16:58:00,SystemResetWarning,0832.9,5.01,000.00,029.0,025.6,000.0,037.5,030.4,30.4,-002.2,0012.85,0004.96,0004.26
2023-07-04 16:59:00,SystemResetWarning,0833.0,5.00,000.00,029.0,026.1,000.0,037.5,030.5,29.9,-000.8,0012.27,0004.92,0004.26
